Tracking 19969 objects as of 13-Nov-2019
Live streaming from Space Station
objects crossing your sky now
Track the group of recently launched Starlink satellites

DELTA 1 DEB

Track DELTA 1 DEB now!
10-day predictions


NORAD ID: 19594
Int'l Code: 1978-026HN
Perigee: 765.7 km
Apogee: 938.8 km
Inclination: 98.9 °
Period: 101.8 minutes
Semi major axis: 7223 km
RCS: 0.0101 m2 (small)
Launch date: March 5, 1978
Source: United States (US)
Launch site: AIR FORCE WESTERN TEST RANGE (AFWTR)

Note: This is SATELLITE DEBRIS
aabbcc
Your satellite tracking list
Your tracking list is empty




NASA's NSSDC Master Catalog

Two Line Element Set (TLE):
1 19594U 78026HN  19316.41300728  .00001022  00000-0  52256-3 0  9994
2 19594  98.8732 296.6866 0119790 272.9174  85.8295 14.14185484362849
Source of the keplerian elements: AFSPC